STARLINK-11199, 60404

Orbit data source: Space-Track

STARLINK-11199, 60404 is a payload satellite owned by SpaceX/Seattle (US) in LEO that was launched on Sat, 10 Aug 2024 UTC via an FALCON 9 launch vehicle from the Air Force Eastern Test Range (AFETR). Payload-class satellites include a variety of spacecraft equipped with specific instruments for various scientific and technological missions. These include communications satellites like Starlink; space stations such as the ISS; scientific satellites like the Hubble; Earth observation satellites from companies like Planet Labs, Umbra, and HawkEye 360; GPS; miniature CubeSats for education and research; and military/defense satellites.

Loading next visibility...
Identifier
60404, 2024-141G
Orbit
LEO
Last TLE update
18 hours ago
Origin
Manufacturer
SpaceX/Seattle
Mission
Operational Commercial Communications
Bus & Motor
STARLINK V2M, Unknown motor
Mass
730 kg wet, ~700 kg dry
Launch date (UTC)
2024-08-10 (11 months ago)
Launch vehicle
FALCON 9
Launch site
Air Force Eastern Test Range (AFETR)
Object type
Payload
Rocket body
Debris
Shape & HBR
Box + 2 Pan, 29 m
Radar Cross Section
36.964 m², Large (>1 m²)

Expand to show TLE details & history

TLE from 18 hours ago
0 STARLINK-11199
1 60404U 24141G   25186.36492946 -.00001102  00000-0 -42428-5 0  9992
2 60404  53.1581 225.7813 0001023  84.4209 275.6925 15.69702344 52891
Epoch: 2025-07-05T08:45Z
TLE epoch observation values (Epoch: 2025-07-05T08:45:29.905Z)
Latitude
-0.00006°
Longitude
170.80263°
Altitude
360.595 km
Speed
7.694 km/s
True Right ascension
15h 03m 07s
True Declination
0° 00' 00"
Sunlit
Object was in full shadow at epoch
Visualization orbit readout
Latitude
6.09755°
Longitude
171.59337°
Altitude
359.951 km
Speed
7.695 km/s
Apparent Right ascension
15h 10m 52s
Apparent Declination
-61° 47' 32"
Sunlit
Object is in full shadow
Visualization observer readout
Local Sidereal Time
15:04:35
Azimuth
179.242° S
Elevation
-11.716°
Doppler factor
1
Orbital elements
Apogee altitude
360.699 km
Perigee altitude
359.32 km
Semi-major axis
6,738.147 km
Eccentricity
0.0001
Inclination
53.1581°
RAAN
225.7813°
Arg. of periapsis
84.4209°
True anomaly
Unknown
Mean anomaly
275.6925°
Eccentric anomaly
Unknown
Mean motion
3.92403 °/min
Orbital period
91.74 mins
BSTAR
-0.0000042428
Loading maneuver chart data...
Loading SW <> Apogee altitude chart data...
Loading historical data...
Loading historical data...
Loading historical data...
Loading historical data...
Loading historical data...
Loading historical data...
Loading historical data...

STARLINK-11199 Visibility forecast

Observer location: undefined°, undefined°

Span
Click to sort rows by Start time (UTC) header in descending order
Start Az.
Max El. time (UTC)
Max El. Az.
Max El.
End time (UTC)
End Az.
4 mins2025-07-06 04:47:38.260Z194.571° SSW2025-07-06 04:49:38.260Z136.864° SSE28.803°2025-07-06 04:51:38.260Z74.829° E
|